Tracking 31027 objects as of 19-Jul-2025
HD Live streaming from Space Station
objects crossing your sky now

QIANFAN-53

Track QIANFAN-53 now!
10-day predictions


NORAD ID: 62254
Int'l Code: 2024-232T
Perigee: 1,066.8 km
Apogee: 1,085.0 km
Inclination: 89.0 °
Period: 106.6 minutes
Semi major axis: 7446 km
RCS: Unknown
Launch date: December 5, 2024
Source: People's Republic of China (PRC)
Launch site: Taiyaun Space Center, China (TSC)
Your satellite tracking list
COSMOS 2502
Track 1 satellite(s)




NASA's NSSDC Master Catalog

Two Line Element Set (TLE):
1 62254U 24232T   25199.83784036  .00000055  00000-0  67254-4 0  9995
2 62254  88.9942  56.0710 0012261 257.4434 102.5346 13.50951856 48074
Source of the keplerian elements: AFSPC